Flag for U.S.A. Weather past 2 weeks in Mountain View, California, U.S.A.

Now
48 °F

Sunny.


Feels Like: 44 °F
Forecast: 47 / 59 °F
Wind: 9 mph from Southeast

Location: Moffett Field

Current Time: Mar 2, 2015 at 8:39:23 AM

Latest Report: Mar 2, 2015 at 7:56 AM


Visibility: 10 mi

Pressure: 29.86 "Hg

Humidity: 77%

Dew point: 41 °F

Location of Mountain ViewLocation

Historic Weather in Mountain View — Graph

°F

Mountain View temperature yesterday

Maximum temperature yesterday: 63 °F (at 2:56 PM)
Minimum temperature yesterday: 40 °F (at 5:56 AM)
Average temperature yesterday: 52 °F

Past Weeks' High & Low Weather Summary

 TemperatureHumidityPressure
High74 °F (Feb 15, 2:56 PM)97% (Mar 1, 3:56 AM)30.38 "Hg (Mar 1, 3:56 AM)
Low38 °F (Feb 24, 6:56 AM)17% (Feb 24, 11:56 AM)29.75 "Hg (Feb 28, 3:56 AM)
Average56 °F66%30.03 "Hg
* Reported Feb 15 6:56 AM — Mar 2 6:56 AM, Mountain View, Weather by CustomWeather, © 2015

Note: Actual official high and low records may vary slightly from our data, if they occured in-between our weather recording intervals... More about our weather records

Advertising

Mountain View weather history for previous 24 hours

 ConditionsComfort  
Time TempWeatherWind HumidityBarometerVisibility
6:56 AM
Mon, Mar 2
45 °FSunny.3 mph80%29.86 "Hg10 mi
5:56 AM44 °FClear.No wind79%29.86 "Hg10 mi
4:56 AM45 °FClear.No wind76%29.86 "Hg10 mi
3:56 AM46 °FClear.3 mph71%29.87 "Hg10 mi
2:56 AM47 °FClear.3 mph71%29.88 "Hg10 mi
1:56 AM48 °FClear.3 mph68%29.90 "Hg10 mi
12:56 AM48 °FClear.3 mph66%29.93 "Hg10 mi
11:56 PM
Sun, Mar 1
49 °FClear.3 mph66%29.94 "Hg10 mi
10:56 PM51 °FClear.5 mph63%29.95 "Hg10 mi
9:56 PM52 °FClear.3 mph64%29.96 "Hg10 mi
8:56 PM54 °FClear.No wind62%29.96 "Hg10 mi
7:56 PM53 °FClear.7 mph66%29.96 "Hg10 mi
6:56 PM56 °FClear.7 mph60%29.95 "Hg10 mi
5:56 PM58 °FSunny.8 mph62%29.93 "Hg10 mi
4:56 PM62 °FSunny.9 mph41%29.92 "Hg10 mi
3:56 PM63 °FSunny.6 mph38%29.93 "Hg10 mi
2:56 PM63 °FSunny.7 mph40%29.93 "Hg10 mi
1:56 PM62 °FSunny.5 mph38%29.94 "Hg10 mi
12:56 PM61 °FSunny.No wind39%29.97 "Hg10 mi
11:56 AM58 °FSunny.No wind44%29.99 "Hg10 mi
10:56 AM58 °FSunny.3 mph44%30.01 "Hg10 mi
9:56 AM55 °FSunny.7 mph55%30.01 "Hg10 mi
8:56 AM52 °FSunny.6 mph72%30.01 "Hg10 mi
Weather by CustomWeather, © 2015

See weather overviewHow to use our weather pages